• In Deutschland
  • Länderverzeichnis
  • Für 7 Tage
  • Wassertemperatur
  • Satellitenkarten
  • Wetterkarte
  • Widgets
  • user-avatar
    Anmelden

    Stündliche Wetter Shkoder

    Heute, 27 Juni, Dienstag

    Zeit Temperatur Niederschläge Wind Luftdruck Luftfeuchtigkeit
    00:00 +21°C° 0 mm 1 m/S 738 mmHg 86%
    01:00 +21°C° 0 mm 1 m/S 738 mmHg 86%
    02:00 +21°C° 0 mm 1 m/S 738 mmHg 86%
    03:00 +21°C° 0 mm 1 m/S 738 mmHg 86%
    04:00 +20°C° 0 mm 1 m/S 738 mmHg 85%
    05:00 +23°C° 0 mm 1 m/S 738 mmHg 79%
    06:00 +25°C° 0 mm 1 m/S 738 mmHg 72%
    07:00 +28°C° 0 mm 1 m/S 738 mmHg 65%
    08:00 +29°C° 0 mm 1 m/S 738 mmHg 57%
    09:00 +31°C° 0 mm 1 m/S 738 mmHg 49%
    10:00 +33°C° 0 mm 1 m/S 738 mmHg 41%
    11:00 +34°C° 0 mm 2 m/S 738 mmHg 39%
    12:00 +35°C° 0 mm 2 m/S 738 mmHg 37%
    13:00 +35°C° 0 mm 3 m/S 737 mmHg 36%
    14:00 +35°C° 0 mm 2 m/S 737 mmHg 38%
    15:00 +34°C° 0 mm 2 m/S 737 mmHg 40%
    16:00 +34°C° 0 mm 2 m/S 736 mmHg 42%
    17:00 +30°C° 0 mm 2 m/S 736 mmHg 54%
    18:00 +27°C° 0 mm 1 m/S 736 mmHg 65%
    19:00 +24°C° 0 mm 1 m/S 736 mmHg 77%
    20:00 +23°C° 0 mm 1 m/S 736 mmHg 79%
    21:00 +22°C° 0 mm 1 m/S 737 mmHg 81%
    22:00 +21°C° 0 mm 1 m/S 737 mmHg 82%
    23:00 +21°C° 0 mm 1 m/S 737 mmHg 80%

    Morgen, 28 Juni, Mittwoch

    Zeit Temperatur Niederschläge Wind Luftdruck Luftfeuchtigkeit
    00:00 +20°C° 0 mm 1 m/S 737 mmHg 77%
    01:00 +19°C° 0 mm 2 m/S 737 mmHg 74%
    02:00 +19°C° 0 mm 2 m/S 737 mmHg 73%
    03:00 +19°C° 0 mm 2 m/S 736 mmHg 72%
    04:00 +19°C° 0 mm 2 m/S 736 mmHg 70%
    05:00 +23°C° 0 mm 1 m/S 736 mmHg 64%
    06:00 +26°C° 0 mm 1 m/S 737 mmHg 58%
    07:00 +29°C° 0 mm 1 m/S 737 mmHg 51%
    08:00 +30°C° 0 mm 2 m/S 737 mmHg 46%
    09:00 +31°C° 0 mm 2 m/S 737 mmHg 41%
    10:00 +34°C° 0 mm 3 m/S 737 mmHg 36%
    11:00 +34°C° 0 mm 3 m/S 737 mmHg 36%
    12:00 +34°C° 0 mm 3 m/S 736 mmHg 37%
    13:00 +35°C° 0 mm 3 m/S 736 mmHg 37%
    14:00 +34°C° 0 mm 3 m/S 736 mmHg 39%
    15:00 +34°C° 0 mm 3 m/S 736 mmHg 41%
    16:00 +32°C° 0 mm 2 m/S 736 mmHg 44%
    17:00 +30°C° 0 mm 2 m/S 736 mmHg 54%
    18:00 +28°C° 0 mm 2 m/S 736 mmHg 64%
    19:00 +25°C° 0 mm 1 m/S 736 mmHg 74%
    20:00 +25°C° 0 mm 1 m/S 736 mmHg 75%
    21:00 +24°C° 0 mm 2 m/S 736 mmHg 75%
    22:00 +23°C° 0 mm 2 m/S 737 mmHg 76%
    23:00 +21°C° 0 mm 2 m/S 736 mmHg 75%

    übermorgen, 29 Juni, Donnerstag

    Zeit Temperatur Niederschläge Wind Luftdruck Luftfeuchtigkeit
    00:00 +21°C° 0 mm 2 m/S 736 mmHg 74%
    01:00 +21°C° 0 mm 2 m/S 736 mmHg 73%
    02:00 +21°C° 0 mm 2 m/S 736 mmHg 73%
    03:00 +21°C° 0 mm 2 m/S 736 mmHg 72%
    04:00 +20°C° 0 mm 2 m/S 736 mmHg 72%
    05:00 +24°C° 0,1 mm 2 m/S 736 mmHg 65%
    06:00 +27°C° 0,1 mm 2 m/S 736 mmHg 58%
    07:00 +29°C° 0,1 mm 2 m/S 736 mmHg 51%
    08:00 +32°C° 0 mm 4 m/S 736 mmHg 45%
    09:00 +34°C° 0 mm 5 m/S 736 mmHg 39%
    10:00 +36°C° 0 mm 6 m/S 736 mmHg 32%
    11:00 +36°C° 0 mm 6 m/S 736 mmHg 35%
    12:00 +36°C° 0 mm 6 m/S 736 mmHg 37%
    13:00 +35°C° 0 mm 6 m/S 735 mmHg 40%
    14:00 +35°C° 0 mm 5 m/S 736 mmHg 42%
    15:00 +34°C° 0 mm 5 m/S 736 mmHg 44%
    16:00 +34°C° 0 mm 4 m/S 736 mmHg 46%
    17:00 +32°C° 0 mm 4 m/S 736 mmHg 58%
    18:00 +29°C° 0 mm 3 m/S 736 mmHg 69%
    19:00 +26°C° 0 mm 2 m/S 736 mmHg 80%
    20:00 +25°C° 0 mm 2 m/S 737 mmHg 82%
    21:00 +24°C° 0 mm 2 m/S 737 mmHg 84%
    22:00 +23°C° 0 mm 2 m/S 737 mmHg 86%
    23:00 +23°C° 0 mm 2 m/S 738 mmHg 84%

    30 Juni, Freitag

    Zeit Temperatur Niederschläge Wind Luftdruck Luftfeuchtigkeit
    00:00 +23°C° 0 mm 2 m/S 738 mmHg 83%
    01:00 +21°C° 0 mm 2 m/S 738 mmHg 82%
    02:00 +21°C° 0 mm 2 m/S 738 mmHg 83%
    03:00 +20°C° 0 mm 2 m/S 738 mmHg 83%
    04:00 +20°C° 0 mm 2 m/S 738 mmHg 84%
    05:00 +23°C° 0 mm 2 m/S 739 mmHg 76%
    06:00 +26°C° 0 mm 2 m/S 739 mmHg 68%
    07:00 +28°C° 0 mm 2 m/S 740 mmHg 60%
    08:00 +30°C° 0 mm 2 m/S 740 mmHg 51%
    09:00 +32°C° 0 mm 2 m/S 740 mmHg 42%
    10:00 +35°C° 0 mm 2 m/S 740 mmHg 33%
    11:00 +36°C° 0 mm 2 m/S 740 mmHg 31%
    12:00 +37°C° 0 mm 2 m/S 740 mmHg 28%
    13:00 +37°C° 0 mm 2 m/S 739 mmHg 25%
    14:00 +37°C° 0 mm 2 m/S 739 mmHg 26%
    15:00 +37°C° 0 mm 2 m/S 739 mmHg 27%
    16:00 +37°C° 0 mm 2 m/S 739 mmHg 28%
    17:00 +34°C° 0 mm 2 m/S 739 mmHg 38%
    18:00 +30°C° 0 mm 1 m/S 739 mmHg 48%
    19:00 +26°C° 0 mm 1 m/S 739 mmHg 58%
    20:00 +26°C° 0 mm 1 m/S 739 mmHg 57%
    21:00 +25°C° 0 mm 2 m/S 739 mmHg 56%
    22:00 +24°C° 0 mm 2 m/S 739 mmHg 56%
    23:00 +24°C° 0 mm 2 m/S 739 mmHg 53%

    1 Juli, Samstag

    Zeit Temperatur Niederschläge Wind Luftdruck Luftfeuchtigkeit
    00:00 +24°C° 0 mm 2 m/S 739 mmHg 51%
    01:00 +24°C° 0 mm 2 m/S 738 mmHg 48%
    02:00 +24°C° 0 mm 2 m/S 738 mmHg 48%
    03:00 +24°C° 0 mm 2 m/S 738 mmHg 48%
    04:00 +24°C° 0 mm 2 m/S 738 mmHg 48%
    05:00 +27°C° 0 mm 1 m/S 738 mmHg 44%
    06:00 +30°C° 0 mm 1 m/S 738 mmHg 40%
    07:00 +33°C° 0 mm 1 m/S 738 mmHg 36%
    08:00 +35°C° 0 mm 1 m/S 738 mmHg 30%
    09:00 +38°C° 0 mm 2 m/S 738 mmHg 25%
    10:00 +40°C° 0 mm 2 m/S 738 mmHg 20%
    11:00 +41°C° 0 mm 2 m/S 737 mmHg 19%
    12:00 +42°C° 0 mm 3 m/S 737 mmHg 19%
    13:00 +42°C° 0 mm 4 m/S 737 mmHg 18%
    14:00 +40°C° 0 mm 3 m/S 737 mmHg 20%
    15:00 +39°C° 0 mm 3 m/S 736 mmHg 21%
    16:00 +39°C° 0 mm 2 m/S 736 mmHg 23%
    17:00 +35°C° 0 mm 2 m/S 736 mmHg 34%
    18:00 +31°C° 0 mm 2 m/S 736 mmHg 45%
    19:00 +27°C° 0 mm 1 m/S 736 mmHg 56%
    20:00 +26°C° 0 mm 1 m/S 736 mmHg 58%
    21:00 +25°C° 0 mm 1 m/S 736 mmHg 60%
    22:00 +24°C° 0 mm 1 m/S 736 mmHg 63%
    23:00 +24°C° 0 mm 1 m/S 736 mmHg 61%

    2 Juli, Sonntag

    Zeit Temperatur Niederschläge Wind Luftdruck Luftfeuchtigkeit
    00:00 +24°C° 0 mm 1 m/S 736 mmHg 59%
    01:00 +24°C° 0 mm 1 m/S 736 mmHg 57%
    02:00 +24°C° 0 mm 1 m/S 736 mmHg 57%
    03:00 +23°C° 0 mm 2 m/S 736 mmHg 57%
    04:00 +23°C° 0 mm 2 m/S 736 mmHg 57%
    05:00 +25°C° 0,1 mm 2 m/S 736 mmHg 56%
    06:00 +27°C° 0,1 mm 3 m/S 736 mmHg 55%
    07:00 +28°C° 0,1 mm 3 m/S 736 mmHg 53%
    08:00 +29°C° 0,5 mm 3 m/S 736 mmHg 55%
    09:00 +29°C° 0,5 mm 3 m/S 736 mmHg 56%
    10:00 +30°C° 0,5 mm 3 m/S 736 mmHg 57%
    11:00 +29°C° 0,7 mm 3 m/S 736 mmHg 63%
    12:00 +29°C° 0,7 mm 2 m/S 736 mmHg 68%
    13:00 +28°C° 0,7 mm 2 m/S 736 mmHg 74%
    14:00 +28°C° 0,5 mm 2 m/S 736 mmHg 70%
    15:00 +28°C° 0,5 mm 3 m/S 736 mmHg 67%
    16:00 +29°C° 0,5 mm 3 m/S 736 mmHg 63%
    17:00 +27°C° 0,4 mm 3 m/S 736 mmHg 69%
    18:00 +25°C° 0,4 mm 3 m/S 736 mmHg 75%
    19:00 +22°C° 0,4 mm 3 m/S 736 mmHg 81%
    20:00 +21°C° 0,2 mm 3 m/S 736 mmHg 81%
    21:00 +20°C° 0,2 mm 3 m/S 737 mmHg 82%
    22:00 +19°C° 0,2 mm 4 m/S 737 mmHg 82%
    23:00 +19°C° 0,2 mm 4 m/S 737 mmHg 81%
    Mehr zeigen